Weather History for Cut Bank, MT

Change the Weather History Date:

Saturday, February 2, 2013

  Actual Average Record
Temperature  
Mean Temperature 43 °F 23 °F  
Max Temperature 54 °F 34 °F 62 °F (1962)
Min Temperature 32 °F 12 °F -36 °F (1996)
Degree Days  
Heating Degree Days 22 42  
Month to date heating degree days 49 84  
Since 1 July heating degree days 4792 5002  
Cooling Degree Days 0 0  
Month to date cooling degree days 0 0  
Year to date cooling degree days 0 0  
Moisture  
Dew Point 22 °F    
Average Humidity 45    
Maximum Humidity 64    
Minimum Humidity 26    
Precipitation  
Precipitation 0.00 in 0.00 in 0.47 in (1947)
Month to date precipitation 0.00 0.01  
Year to date precipitation 0.42 0.21  
Snow  
Snow 0.00 in - - ()
Snow Depth 0.00 in    
Sea Level Pressure  
Sea Level Pressure 30.20 in    
Wind  
Wind Speed 22 mph (West)    
Max Wind Speed 32 mph    
Max Gust Speed 40 mph    
Visibility 10 miles    
Events      
T = Trace of Precipitation, MM = Missing Value Source: NWS Daily Summary

Daily Weather History Graph

Daily Weather History Graph

Search for Another Location

Airport:

Trip Planner

Search our weather history database for the weather conditions in past years. The results will help you decide how hot, cold, wet, or windy it might be!

Date:

Astronomy

Feb. 02, 2013 Rise Set
Actual Time 7:57 AM MST 5:30 PM MST
Civil Twilight 7:23 AM MST 6:03 PM MST
Nautical Twilight 6:45 AM MST 6:41 PM MST
Astronomical Twilight 6:09 AM MST 7:18 PM MST
Moon 12:16 AM MST (2/2) 10:31 AM MST (2/2)
Length of Visible Light 10h 40m
Length of Day
9h 33m
Waning Gibbous, 59% of the Moon is Illuminated
Feb 2
Waning Gibbous
Feb 3
Last Quarter
Feb 10
New
Feb 17
First Quarter
Feb 25
Full

Hourly Weather History & Observations

Time (MST) Temp. Windchill Dew Point Humidity Pressure Visibility Wind Dir Wind Speed Gust Speed Precip Events Conditions
12:56 AM 36.0 °F 23.9 °F 21.9 °F 57% 30.16 in 10.0 mi West 25.3 mph 32.2 mph N/A   Clear
1:56 AM 36.0 °F 23.7 °F 23.0 °F 59% 30.17 in 10.0 mi West 26.5 mph 33.4 mph N/A   Clear
2:56 AM 36.0 °F 23.5 °F 23.0 °F 59% 30.18 in 10.0 mi West 27.6 mph 33.4 mph N/A   Clear
3:56 AM 36.0 °F 22.8 °F 23.0 °F 59% 30.19 in 10.0 mi WSW 31.1 mph 36.8 mph N/A   Clear
4:56 AM 36.0 °F 23.0 °F 24.1 °F 62% 30.22 in 10.0 mi West 29.9 mph 36.8 mph N/A   Clear
5:56 AM 35.1 °F 23.3 °F 24.1 °F 64% 30.25 in 10.0 mi West 23.0 mph - N/A   Clear
6:56 AM 35.1 °F 22.7 °F 24.1 °F 64% 30.27 in 10.0 mi West 25.3 mph 29.9 mph N/A   Clear
7:56 AM 35.1 °F 24.1 °F 23.0 °F 61% 30.29 in 10.0 mi West 19.6 mph - N/A   Clear
8:37 AM 35.6 °F 25.2 °F 23.0 °F 60% 30.25 in 10.0 mi NW 18.4 mph 27.6 mph N/A   Clear
8:56 AM 36.0 °F 27.5 °F 23.0 °F 59% 30.34 in 10.0 mi NNW 12.7 mph - N/A   Clear
9:56 AM 41.0 °F 36.4 °F 23.0 °F 49% 30.32 in 10.0 mi West 6.9 mph - N/A   Clear
10:56 AM 48.0 °F - 24.1 °F 39% 30.29 in 10.0 mi West 10.4 mph - N/A   Clear
11:56 AM 50.0 °F - 21.9 °F 33% 30.25 in 10.0 mi WSW 21.9 mph - N/A   Clear
12:56 PM 51.1 °F - 21.0 °F 31% 30.22 in 10.0 mi West 24.2 mph - N/A   Clear
1:56 PM 53.1 °F - 19.0 °F 26% 30.19 in 10.0 mi West 21.9 mph 27.6 mph N/A   Clear
2:56 PM 51.1 °F - 19.0 °F 28% 30.18 in 10.0 mi West 24.2 mph 29.9 mph N/A   Clear
3:56 PM 48.0 °F - 21.0 °F 34% 30.18 in 10.0 mi West 24.2 mph 31.1 mph N/A   Clear
4:56 PM 46.4 °F 38.7 °F 21.2 °F 37% 30.14 in 10.0 mi West 20.7 mph 28.8 mph N/A   Clear
5:56 PM 39.9 °F 30.0 °F 23.0 °F 51% 30.19 in 10.0 mi West 21.9 mph 25.3 mph N/A   Clear
6:56 PM 39.0 °F 28.5 °F 21.9 °F 50% 30.17 in 10.0 mi West 23.0 mph 31.1 mph N/A   Clear
7:56 PM 39.9 °F 29.7 °F 21.9 °F 49% 30.15 in 10.0 mi West 23.0 mph - N/A   Clear
8:56 PM 41.0 °F 32.5 °F 21.0 °F 45% 30.12 in 10.0 mi WSW 17.3 mph - N/A   Clear
9:56 PM 42.1 °F 32.1 °F 21.0 °F 43% 30.09 in 10.0 mi WSW 25.3 mph - N/A   Clear
10:56 PM 41.0 °F 32.8 °F 21.0 °F 45% 30.07 in 10.0 mi West 16.1 mph - N/A   Clear
11:56 PM 41.0 °F 31.6 °F 21.0 °F 45% 30.04 in 10.0 mi West 20.7 mph 26.5 mph N/A   Clear